Regional Weather Roundup
Issued by NWS

Home | Current Version | Previous Version | Graphics & Text | Print | Product List | Glossary On
Versions: 1 2 3 4 5 6 7 8 9 10 11 12 13 14 15 16 17 18 19 20 21 22 23 24 25 26 27 28 29 30 31 32 33 34 35 36 37 38 39 40 41 42 43 44 45 46 47 48 49 50
000
ASUS45 KPSR 301300
RWRAZ

PRELIMINARY ARIZONA REGIONAL HOURLY WEATHER ROUNDUP
NATIONAL WEATHER SERVICE PHOENIX AZ
600 AM MST WED JUL 30 2014

NOTE: FAIR INDICATES FEW OR NO CLOUDS BELOW 12,000 FEET WITH NO
SIGNIFICANT WEATHER AND/OR OBSTRUCTIONS TO VISIBILITY.

AZZ001>003-036-301400-
NORTHWEST ARIZONA

CITY           SKY/WX    TMP DP  RH WIND       PRES   REMARKS
KINGMAN        CLEAR     70  53  54 S3        30.05S
$$

AZZ004>008-015-016-018-301400-
NORTH CENTRAL ARIZONA

CITY           SKY/WX    TMP DP  RH WIND       PRES   REMARKS
GRAND CANYON   CLEAR     51  48  89 CALM      30.31R
WILLIAMS       CLEAR     54  48  82 SE8       30.37R
PRESCOTT       CLEAR     65  51  60 S5        30.19R
FLAGSTAFF      CLEAR     51  46  83 CALM      30.34R
PAYSON         CLEAR     66  52  59 CALM      30.21S
PAGE           PTCLDY    74  53  48 CALM      30.13R
$$

AZZ009>014-017-301400-
NORTHEAST ARIZONA

CITY           SKY/WX    TMP DP  RH WIND       PRES   REMARKS
WINSLOW        NOT AVBL
SAINT JOHNS    CLEAR     66  52  60 S5        30.23S
WINDOW ROCK    CLEAR     57  52  83 CALM      30.31S
$$

AZZ023-301400-
GREATER PHOENIX AREA

CITY           SKY/WX    TMP DP  RH WIND       PRES   REMARKS
PHOENIX        PTCLDY    92  55  28 N6        29.85R
BUCKEYE          N/A     84  52  32 N3        29.87R
GLENDALE       PTCLDY    90  55  31 CALM      29.87
DEER VALLEY    CLEAR     85  56  37 NE3       29.88S
SCOTTSDALE     CLEAR     88  58  36 CALM      29.90S
MESA-GATEWAY   PTCLDY    82  57  42 SE5       29.90
CHANDLER       PTCLDY   N/A N/A N/A E5        29.88
$$

AZZ027-028-301400-
SOUTHWEST MARICOPA COUNTY AND PINAL COUNTY

CITY           SKY/WX    TMP DP  RH WIND       PRES   REMARKS
CASA GRANDE    CLEAR     81  55  41 CALM      29.91S
$$

AZZ503-504-507>509-301400-
SOUTHEAST ARIZONA

CITY           SKY/WX    TMP DP  RH WIND       PRES   REMARKS
TUCSON         PTCLDY    81  59  47 S6        30.02S
DAVIS-MONTHAN  CLEAR     78  59  50 SE6       30.01R
RYAN FIELD       N/A     79  57  47 CALM      30.01
NOGALES        MOCLDY    69  56  62 CALM      30.12R
SIERRA VISTA   MOCLDY    73  55  53 E3        30.18R
SAFFORD        CLEAR     73  63  70 CALM      30.03R
$$

AZZ020-021-025-026-031-301400-
SOUTHWEST ARIZONA

CITY           SKY/WX    TMP DP  RH WIND       PRES   REMARKS
YUMA           NOT AVBL
$$

CAZ031-033-041-043-047-048-061-301400-
SOUTHERN CALIFORNIA

CITY           SKY/WX    TMP DP  RH WIND       PRES   REMARKS
DOWNTOWN L.A.  PTCLDY    68  62  81 CALM      29.94R
L.A. AIRPORT   MOCLDY    68  63  84 CALM      29.94S
SAN DIEGO      PTCLDY    71  66  84 CALM      29.96S
BURBANK        MOCLDY    72  58  61 CALM      29.95R
ONTARIO        PTCLDY    70  57  63 CALM      29.96R
RIVERSIDE      CLEAR     70  55  59 CALM      29.96R
PALM SPRINGS   CLEAR     84  58  40 S3        29.85R
EL CENTRO NAS  PTCLDY    85  48  27 CALM      29.79R
IMPERIAL       CLEAR     84  51  31 W8        29.79R
BLYTHE           N/A    N/A N/A N/A MISG      29.81R
$$

NVZ020-UTZ003-301400-
SOUTHERN NEVADA-UTAH

CITY           SKY/WX    TMP DP  RH WIND       PRES   REMARKS
LAS VEGAS      NOT AVBL
SALT LAKE CITY MOCLDY    66  65  96 CALM      30.17S
$$

NMZ009-TXZ055-301400-
NEW MEXICO-WEST TEXAS

CITY           SKY/WX    TMP DP  RH WIND       PRES   REMARKS
ALBUQUERQUE    PTCLDY    67  59  75 N3        30.22R
EL PASO        MOCLDY    73  66  78 CALM      30.08S
$$


........................KEY........................
SKY/WX - SKY CONDITION/WEATHER
TMP    - TEMPERATURE IN FAHRENHEIT
DP     - DEW POINT IN FAHRENHEIT
RH     - RELATIVE HUMIDITY IN PERCENT
WIND   - DIRECTION AND SPEED IN MILES PER HOUR (MPH)
VRB    - VARIABLE WIND DIRECTION
PRES   - MEAN SEA LEVEL PRESSURE IN INCHES OF MERCURY
         F - FALLING PRESSURE   R - RISING PRESSURE
         S - STEADY PRESSURE
VSB    - VISIBILITY IN MILES
HX     - HEAT INDEX IN FAHRENHEIT
WCI    - WIND CHILL INDEX IN FAHRENHEIT
TC     - TEMPERATURE IN CELSIUS WHICH IS ALSO KNOWN AS
         TEMPERATURE IN CENTIGRADE
AFB    - AIR FORCE BASE
         LUKE AFB IS LUKE AIR FORCE BASE
         DAVIS-MONTHAN IS DAVIS-MONTHAN AIR FORCE BASE
NAS    - NAVAL AIR STATION
         EL CENTRO NAS IS EL CENTRO NAVAL AIR STATION
N/A    - NOT AVAILABLE


USA.gov is the U.S. government's official web portal to all federal, state and local government web resources and services.